User: anonymous   Login
Location: Norton
(51.3000°N, 0.8167°E)
Time: 02:57:40
(UTC+00:00)
Language:

NOSS 3-3 (A) - Orbit

View from above orbital plane
View from above orbital plane
View from above satellite
View from above satellite

Ground track
Ground track

The orbit data is extracted from the following two-line orbital elements,

1 28537U 05004A   21134.94117653 0.00000000  00000-0  00000-0 0    04
2 28537  63.4425 145.5995 0402396 357.9663   2.0337 13.40810954    02
Epoch (UTC): 14 May 2021 22:35:17
Eccentricity: 0.0402396
inclination: 63.4425°
perigee height: 805 km
apogee height: 1407 km
right ascension of ascending node: 145.5995°
argument of perigee: 357.9663°
revolutions per day: 13.40810954
mean anomaly at epoch: 2.0337°
orbit number at epoch: 0

The dashed part of the orbit path shows where the satellite is in the earth's shadow,  

DLR